Location: Newark
(15.4608°S, 41.1635°W)
Time: 20:01:29
(UTC+00:00)

Courier 1B Rocket - All Passes

Search period start: 04 March 2021 00:00
Search period end: 14 March 2021 00:00
Orbit: 920 x 1202 km, 28.3° (Epoch: 03 March)

Date Brightness Start Highest point End Pass type
(mag) Time Alt. Az. Time Alt. Az. Time Alt. Az.
04 Mar - 01:49:50 10° NNW 01:56:30 34° NNE 02:02:50 10° E night (unlit)
04 Mar - 03:42:49 10° WNW 03:50:08 80° SSW 03:56:56 10° ESE night (unlit)
04 Mar - 05:37:54 10° WSW 05:44:07 35° SSW 05:49:59 10° SE visible
04 Mar - 07:33:19 10° SW 07:38:37 25° S 07:43:45 10° SE visible
04 Mar - 09:27:15 10° SW 09:33:02 36° SSE 09:38:46 10° E daylight
04 Mar - 11:20:27 10° WSW 11:26:44 86° NNW 11:33:09 10° ENE daylight
04 Mar - 13:15:01 10° W 13:20:02 25° NNW 13:25:13 10° NNE daylight
05 Mar - 00:49:24 10° NNW 00:55:16 24° NNE 01:00:54 10° E night (unlit)
05 Mar - 02:41:27 10° WNW 02:48:56 74° NNE 02:55:55 10° ESE night (unlit)
05 Mar - 04:36:00 10° W 04:42:47 44° SSW 04:49:08 10° SE visible
05 Mar - 06:31:38 10° WSW 06:37:11 26° S 06:42:30 10° SE visible
05 Mar - 08:26:09 10° SW 08:31:45 30° S 08:37:11 10° ESE visible
05 Mar - 10:19:26 10° WSW 10:25:42 67° SSE 10:31:57 10° ENE daylight
05 Mar - 12:13:19 10° W 12:19:02 37° NNW 12:24:54 10° NE daylight
05 Mar - 23:49:37 10° N 23:53:57 16° NNE 23:58:12 10° ENE visible
06 Mar - 01:40:19 10° NW 01:47:43 52° NNE 01:54:41 10° ESE night (unlit)
06 Mar - 03:34:11 10° W 03:41:28 59° SSW 03:48:15 10° ESE night (unlit)
06 Mar - 05:29:43 10° WSW 05:35:44 30° S 05:41:25 10° SE visible
06 Mar - 07:24:51 10° SW 07:30:22 27° S 07:35:40 10° ESE visible
06 Mar - 09:18:27 10° SW 09:24:36 48° SSE 09:30:37 10° E daylight
06 Mar - 11:11:57 10° WSW 11:18:04 57° NNW 11:24:15 10° NE daylight
06 Mar - 13:08:01 10° WNW 13:11:22 15° NNW 13:14:45 10° N daylight
07 Mar - 00:39:29 10° NW 00:46:27 36° NNE 00:53:09 10° E night (unlit)
07 Mar - 02:32:33 10° WNW 02:40:11 79° SSW 02:47:19 10° ESE night (unlit)
07 Mar - 04:27:44 10° W 04:34:17 36° SSW 04:40:27 10° SE visible
07 Mar - 06:23:17 10° SW 06:28:54 26° S 06:34:15 10° SE visible
07 Mar - 08:17:23 10° SW 08:23:23 38° SSE 08:29:10 10° E visible
07 Mar - 10:10:46 10° WSW 10:17:06 84° NNW 10:23:22 10° ENE daylight
07 Mar - 12:05:32 10° W 12:10:20 23° NNW 12:15:13 10° NNE daylight
07 Mar - 23:39:03 10° NNW 23:45:10 25° NNE 23:51:10 10° E visible
08 Mar - 01:31:09 10° WNW 01:38:54 76° NNE 01:46:13 10° ESE night (unlit)
08 Mar - 03:25:46 10° W 03:32:52 45° SSW 03:39:32 10° SE night (unlit)
08 Mar - 05:21:29 10° WSW 05:27:24 28° S 05:33:00 10° SE visible
08 Mar - 07:16:10 10° SW 07:22:03 31° S 07:27:40 10° ESE visible
08 Mar - 09:09:38 10° WSW 09:16:04 69° SSE 09:22:17 10° ENE daylight
08 Mar - 11:03:42 10° W 11:09:22 36° NNW 11:15:02 10° NE daylight
08 Mar - 22:39:15 10° N 22:43:51 17° NNE 22:48:25 10° ENE visible
09 Mar - 00:30:01 10° NW 00:37:36 54° NNE 00:44:55 10° ESE visible
09 Mar - 02:23:56 10° W 02:31:29 59° SSW 02:38:36 10° ESE night (unlit)
09 Mar - 04:19:31 10° WSW 04:25:53 31° S 04:31:53 10° SE visible
09 Mar - 06:14:45 10° SW 06:20:38 28° S 06:26:11 10° ESE visible
09 Mar - 08:08:32 10° SW 08:14:56 50° SSE 08:21:02 10° E visible
09 Mar - 10:02:13 10° WSW 10:08:26 55° NNW 10:14:30 10° NE daylight
09 Mar - 11:58:40 10° WNW 12:01:38 14° NNW 12:04:39 10° N daylight
09 Mar - 23:29:12 10° NW 23:36:19 38° NNE 23:43:18 10° E visible
10 Mar - 01:22:17 10° WNW 01:30:06 79° SSW 01:37:33 10° ESE night (unlit)
10 Mar - 03:17:29 10° W 03:24:21 37° SSW 03:30:51 10° SE night (unlit)
10 Mar - 05:13:06 10° SW 05:19:07 28° S 05:24:46 10° ESE visible
10 Mar - 07:07:21 10° SW 07:13:41 39° SSE 07:19:39 10° E visible
10 Mar - 09:00:55 10° WSW 09:07:28 82° NNW 09:13:43 10° ENE daylight
10 Mar - 10:55:54 10° W 11:00:39 22° NNW 11:05:21 10° NNE daylight
10 Mar - 22:28:49 10° NNW 22:35:02 26° NNE 22:41:14 10° E visible
11 Mar - 00:20:54 10° WNW 00:28:45 78° NNE 00:36:23 10° ESE visible
11 Mar - 02:15:30 10° W 02:22:51 46° SSW 02:29:51 10° SE night (unlit)
11 Mar - 04:11:15 10° WSW 04:17:32 29° S 04:23:28 10° SE night (unlit)
11 Mar - 06:06:02 10° SW 06:12:19 33° S 06:18:11 10° ESE visible
11 Mar - 07:59:41 10° WSW 08:06:24 71° SSE 08:12:43 10° ENE visible
11 Mar - 09:53:57 10° W 09:59:42 35° NNW 10:05:18 10° NNE daylight
11 Mar - 21:29:03 10° N 21:33:44 17° NNE 21:38:26 10° ENE visible
11 Mar - 23:19:48 10° NW 23:27:26 56° NNE 23:34:58 10° ESE visible
12 Mar - 01:13:40 10° W 01:21:23 59° SSW 01:28:48 10° ESE visible
12 Mar - 03:09:14 10° WSW 03:15:55 32° S 03:22:16 10° SE night (unlit)
12 Mar - 05:04:32 10° SW 05:10:48 30° S 05:16:41 10° ESE visible
12 Mar - 06:58:28 10° SW 07:05:13 52° SSE 07:11:31 10° E visible
12 Mar - 08:52:20 10° WSW 08:58:46 54° NNW 09:04:52 10° NE daylight
12 Mar - 10:49:06 10° WNW 10:51:56 13° NNW 10:54:46 10° N daylight
12 Mar - 22:19:03 10° NW 22:26:08 39° NNE 22:33:17 10° E visible
13 Mar - 00:12:04 10° WNW 00:19:56 78° SSW 00:27:40 10° ESE visible
13 Mar - 02:07:13 10° W 02:14:19 37° SSW 02:21:08 10° SE night (unlit)
13 Mar - 04:02:50 10° WSW 04:09:12 29° S 04:15:13 10° ESE night (unlit)
13 Mar - 05:57:11 10° SW 06:03:54 41° SSE 06:10:09 10° E visible
13 Mar - 07:50:55 10° WSW 07:57:45 80° NNW 08:04:09 10° ENE visible
13 Mar - 09:46:07 10° W 09:50:57 22° NNW 09:55:39 10° NNE daylight
13 Mar - 21:18:44 10° NNW 21:24:53 26° NNE 21:31:09 10° E visible
13 Mar - 23:10:44 10° WNW 23:18:34 79° NNE 23:26:23 10° ESE visible
